Time,TemperatureF,DewpointF,PressureIn,WindDirection,WindDirectionDegrees,WindSpeedMPH,WindSpeedGustMPH,Humidity,HourlyPrecipIn,Conditions,Clouds,dailyrainin,SoftwareType,DateUTC
2013-07-09 00:06:00,72.0,49.5,29.47,ESE,117,0.0,0.0,45,0.00,,,0.00,VWS V14.01,2013-07-09 04:06:00,
2013-07-09 00:21:00,72.0,50.1,29.50,ESE,117,0.0,0.0,46,0.00,,,0.00,VWS V14.01,2013-07-09 04:21:00,
2013-07-09 00:36:00,71.8,50.5,29.50,ESE,117,0.0,0.0,47,0.00,,,0.00,VWS V14.01,2013-07-09 04:36:00,
2013-07-09 00:51:00,71.6,50.9,29.50,ESE,117,0.0,0.0,48,0.00,,,0.00,VWS V14.01,2013-07-09 04:51:00,
2013-07-09 01:06:00,71.6,51.5,29.50,ESE,117,0.0,0.0,49,0.00,,,0.00,VWS V14.01,2013-07-09 05:06:00,
2013-07-09 01:21:00,71.4,51.8,29.47,ESE,117,0.0,0.0,50,0.00,,,0.00,VWS V14.01,2013-07-09 05:21:00,
2013-07-09 01:36:00,71.2,52.2,29.47,ESE,117,0.0,0.0,51,0.00,,,0.00,VWS V14.01,2013-07-09 05:36:00,
2013-07-09 01:51:00,71.1,53.1,29.47,ESE,117,0.0,0.0,53,0.00,,,0.00,VWS V14.01,2013-07-09 05:51:00,
2013-07-09 02:06:00,71.1,54.1,29.47,ESE,117,0.0,0.0,55,0.00,,,0.00,VWS V14.01,2013-07-09 06:06:00,
2013-07-09 02:21:00,70.9,54.9,29.47,ESE,117,0.0,0.0,57,0.00,,,0.00,VWS V14.01,2013-07-09 06:21:00,
2013-07-09 02:36:00,70.9,55.4,29.47,ESE,117,0.0,0.0,58,0.00,,,0.00,VWS V14.01,2013-07-09 06:36:00,
2013-07-09 02:51:00,70.7,55.7,29.47,ESE,117,0.0,0.0,59,0.00,,,0.00,VWS V14.01,2013-07-09 06:51:00,
2013-07-09 03:06:00,70.5,56.0,29.47,ESE,117,0.0,0.0,60,0.00,,,0.00,VWS V14.01,2013-07-09 07:06:00,
2013-07-09 03:21:00,70.5,56.4,29.47,ESE,117,0.0,0.0,61,0.00,,,0.00,VWS V14.01,2013-07-09 07:21:00,
2013-07-09 03:36:00,70.5,56.9,29.47,ESE,117,0.0,0.0,62,0.00,,,0.00,VWS V14.01,2013-07-09 07:36:00,
2013-07-09 04:06:00,70.3,57.2,29.47,ESE,117,0.0,0.0,63,0.00,,,0.00,VWS V14.01,2013-07-09 08:06:00,
2013-07-09 04:21:00,70.3,57.2,29.47,ESE,117,0.0,0.0,63,0.00,,,0.00,VWS V14.01,2013-07-09 08:21:00,
2013-07-09 04:36:00,70.3,57.6,29.47,ESE,117,0.0,0.0,64,0.00,,,0.00,VWS V14.01,2013-07-09 08:36:00,
2013-07-09 04:51:00,70.2,57.4,29.47,ESE,117,0.0,0.0,64,0.00,,,0.00,VWS V14.01,2013-07-09 08:51:00,
2013-07-09 05:06:00,70.2,57.9,29.47,ESE,117,0.0,0.0,65,0.00,,,0.00,VWS V14.01,2013-07-09 09:06:00,
2013-07-09 05:21:00,70.2,57.9,29.47,ESE,117,0.0,0.0,65,0.00,,,0.00,VWS V14.01,2013-07-09 09:21:00,
2013-07-09 05:36:00,70.0,57.7,29.47,ESE,117,0.0,0.0,65,0.00,,,0.00,VWS V14.01,2013-07-09 09:36:00,
2013-07-09 05:51:00,70.0,57.7,29.47,ESE,117,0.0,0.0,65,0.00,,,0.00,VWS V14.01,2013-07-09 09:51:00,
2013-07-09 06:06:00,70.0,58.1,29.47,ESE,117,0.0,0.0,66,0.00,,,0.00,VWS V14.01,2013-07-09 10:06:00,
2013-07-09 06:21:00,70.0,58.1,29.47,ESE,117,0.0,0.0,66,0.00,,,0.00,VWS V14.01,2013-07-09 10:21:00,
2013-07-09 06:36:00,70.0,58.1,29.47,ESE,117,0.0,0.0,66,0.00,,,0.00,VWS V14.01,2013-07-09 10:36:00,
2013-07-09 06:51:00,70.2,58.7,29.47,ESE,117,0.0,0.0,67,0.00,,,0.00,VWS V14.01,2013-07-09 10:51:00,
2013-07-09 07:06:00,70.3,58.9,29.47,ESE,117,0.0,0.0,67,0.00,,,0.00,VWS V14.01,2013-07-09 11:06:00,
2013-07-09 07:21:00,70.7,58.8,29.47,ESE,117,0.0,0.0,66,0.00,,,0.00,VWS V14.01,2013-07-09 11:21:00,
2013-07-09 07:36:00,71.1,59.1,29.47,ESE,117,0.0,0.0,66,0.00,,,0.00,VWS V14.01,2013-07-09 11:36:00,
2013-07-09 07:51:00,71.4,59.0,29.47,ESE,117,0.0,0.0,65,0.00,,,0.00,VWS V14.01,2013-07-09 11:51:00,
2013-07-09 08:06:00,71.4,58.6,29.47,ESE,117,0.0,0.0,64,0.00,,,0.00,VWS V14.01,2013-07-09 12:06:00,
2013-07-09 08:21:00,72.0,58.2,29.47,ESE,117,0.0,0.0,62,0.00,,,0.00,VWS V14.01,2013-07-09 12:21:00,
2013-07-09 08:36:00,72.5,56.9,29.47,ESE,117,0.0,0.0,58,0.00,,,0.00,VWS V14.01,2013-07-09 12:36:00,
2013-07-09 08:51:00,72.9,54.8,29.47,ESE,117,0.0,0.0,53,0.00,,,0.00,VWS V14.01,2013-07-09 12:51:00,
2013-07-09 09:06:00,73.4,52.5,29.47,ESE,117,0.0,0.0,48,0.00,,,0.00,VWS V14.01,2013-07-09 13:06:00,
2013-07-09 09:21:00,73.8,50.5,29.47,ESE,117,0.0,0.0,44,0.00,,,0.00,VWS V14.01,2013-07-09 13:21:00,
2013-07-09 09:36:00,74.3,49.1,29.47,ESE,117,0.0,0.0,41,0.00,,,0.00,VWS V14.01,2013-07-09 13:36:00,
2013-07-09 09:51:00,75.0,47.7,29.47,ESE,117,0.0,0.0,38,0.00,,,0.00,VWS V14.01,2013-07-09 13:51:00,
2013-07-09 10:06:00,76.5,46.0,29.47,ESE,117,0.0,0.0,34,0.00,,,0.00,VWS V14.01,2013-07-09 14:06:00,
2013-07-09 10:21:00,79.0,42.2,29.47,East,79,0.0,0.0,27,0.00,,,0.00,VWS V14.01,2013-07-09 14:21:00,
2013-07-09 10:36:00,79.9,39.9,29.47,ESE,103,0.0,0.0,24,0.00,,,0.00,VWS V14.01,2013-07-09 14:36:00,
2013-07-09 10:51:00,81.3,38.9,29.47,ESE,106,0.0,0.0,22,0.00,,,0.00,VWS V14.01,2013-07-09 14:51:00,
2013-07-09 11:06:00,82.9,37.8,29.47,WNW,303,0.0,0.0,20,0.00,,,0.00,VWS V14.01,2013-07-09 15:06:00,
2013-07-09 11:21:00,83.5,36.9,29.47,NE,43,0.0,0.0,19,0.00,,,0.00,VWS V14.01,2013-07-09 15:21:00,
2013-07-09 11:36:00,84.7,38.0,29.47,NNW,333,0.0,0.0,19,0.00,,,0.00,VWS V14.01,2013-07-09 15:36:00,
2013-07-09 11:51:00,86.2,37.8,29.47,East,81,0.0,0.0,18,0.00,,,0.00,VWS V14.01,2013-07-09 15:51:00,
2013-07-09 12:06:00,86.4,37.9,29.47,NNW,335,0.0,0.0,18,0.00,,,0.00,VWS V14.01,2013-07-09 16:06:00,
2013-07-09 12:21:00,85.5,38.5,29.47,North,353,0.0,0.0,19,0.00,,,0.00,VWS V14.01,2013-07-09 16:21:00,
2013-07-09 12:36:00,87.1,38.5,29.47,East,97,0.0,0.0,18,0.00,,,0.00,VWS V14.01,2013-07-09 16:36:00,
2013-07-09 12:51:00,87.8,34.5,29.44,East,86,0.0,0.0,15,0.00,,,0.00,VWS V14.01,2013-07-09 16:51:00,
2013-07-09 13:06:00,86.9,38.3,29.44,North,5,0.0,0.0,18,0.00,,,0.00,VWS V14.01,2013-07-09 17:06:00,
2013-07-09 13:21:00,88.9,35.3,29.44,East,86,0.0,0.0,15,0.00,,,0.00,VWS V14.01,2013-07-09 17:21:00,
2013-07-09 13:36:00,89.6,35.9,29.44,NNE,19,0.0,0.0,15,0.00,,,0.00,VWS V14.01,2013-07-09 17:36:00,
2013-07-09 13:51:00,89.6,35.9,29.44,ESE,107,0.0,0.0,15,0.00,,,0.00,VWS V14.01,2013-07-09 17:51:00,
2013-07-09 14:06:00,89.6,35.9,29.44,NNE,22,0.0,0.0,15,0.00,,,0.00,VWS V14.01,2013-07-09 18:06:00,
2013-07-09 14:21:00,89.8,36.0,29.44,East,86,0.0,0.0,15,0.00,,,0.00,VWS V14.01,2013-07-09 18:21:00,
2013-07-09 14:36:00,90.7,36.7,29.44,ENE,72,0.0,0.0,15,0.00,,,0.00,VWS V14.01,2013-07-09 18:36:00,
2013-07-09 14:51:00,90.9,36.9,29.41,North,8,0.0,0.0,15,0.00,,,0.00,VWS V14.01,2013-07-09 18:51:00,
2013-07-09 15:06:00,91.0,37.0,29.41,ENE,59,0.0,0.0,15,0.00,,,0.00,VWS V14.01,2013-07-09 19:06:00,
2013-07-09 15:21:00,91.4,35.6,29.41,SSE,164,0.0,0.0,14,0.00,,,0.00,VWS V14.01,2013-07-09 19:21:00,
2013-07-09 15:36:00,91.2,37.2,29.41,NE,48,0.0,0.0,15,0.00,,,0.00,VWS V14.01,2013-07-09 19:36:00,
2013-07-09 15:51:00,90.7,36.7,29.38,NE,50,0.0,0.0,15,0.00,,,0.00,VWS V14.01,2013-07-09 19:51:00,
2013-07-09 16:06:00,90.3,36.5,29.38,North,353,0.0,0.0,15,0.00,,,0.00,VWS V14.01,2013-07-09 20:06:00,
2013-07-09 16:21:00,88.3,34.9,29.38,WNW,303,0.0,0.0,15,0.00,,,0.00,VWS V14.01,2013-07-09 20:21:00,
2013-07-09 16:36:00,88.9,35.3,29.38,SW,216,0.0,0.0,15,0.00,,,0.00,VWS V14.01,2013-07-09 20:36:00,
2013-07-09 16:51:00,89.6,35.9,29.38,ENE,58,0.0,0.0,15,0.00,,,0.00,VWS V14.01,2013-07-09 20:51:00,
2013-07-09 17:06:00,88.2,34.7,29.35,NW,309,0.0,0.0,15,0.00,,,0.00,VWS V14.01,2013-07-09 21:06:00,
2013-07-09 17:21:00,88.0,34.6,29.35,NW,308,0.0,0.0,15,0.00,,,0.00,VWS V14.01,2013-07-09 21:21:00,
2013-07-09 17:36:00,87.6,35.9,29.35,NW,309,0.0,0.0,16,0.00,,,0.00,VWS V14.01,2013-07-09 21:36:00,
2013-07-09 17:51:00,85.5,34.2,29.35,NW,309,0.0,0.0,16,0.00,,,0.00,VWS V14.01,2013-07-09 21:51:00,
2013-07-09 18:06:00,84.2,36.2,29.35,NW,309,0.0,0.0,18,0.00,,,0.00,VWS V14.01,2013-07-09 22:06:00,
2013-07-09 18:21:00,83.5,36.9,29.38,NW,309,0.0,0.0,19,0.00,,,0.00,VWS V14.01,2013-07-09 22:21:00,
2013-07-09 18:36:00,82.8,37.6,29.38,WNW,287,0.0,0.0,20,0.00,,,0.00,VWS V14.01,2013-07-09 22:36:00,
2013-07-09 18:51:00,82.0,37.0,29.38,WNW,286,0.0,0.0,20,0.00,,,0.00,VWS V14.01,2013-07-09 22:51:00,
2013-07-09 19:06:00,81.7,36.8,29.38,WNW,286,0.0,0.0,20,0.00,,,0.00,VWS V14.01,2013-07-09 23:06:00,
2013-07-09 19:21:00,81.1,36.3,29.38,WNW,286,0.0,0.0,20,0.00,,,0.00,VWS V14.01,2013-07-09 23:21:00,
2013-07-09 19:36:00,80.6,37.1,29.38,WNW,286,0.0,0.0,21,0.00,,,0.00,VWS V14.01,2013-07-09 23:36:00,
2013-07-09 19:51:00,79.5,37.4,29.38,WNW,286,0.0,0.0,22,0.00,,,0.00,VWS V14.01,2013-07-09 23:51:00,
2013-07-09 20:06:00,78.8,39.0,29.38,WNW,286,0.0,0.0,24,0.00,,,0.00,VWS V14.01,2013-07-10 00:06:00,
2013-07-09 20:21:00,78.3,40.6,29.38,WNW,286,0.0,0.0,26,0.00,,,0.00,VWS V14.01,2013-07-10 00:21:00,
2013-07-09 20:36:00,77.7,42.0,29.38,WNW,286,0.0,0.0,28,0.00,,,0.00,VWS V14.01,2013-07-10 00:36:00,
2013-07-09 20:51:00,77.4,43.5,29.38,WNW,286,0.0,0.0,30,0.00,,,0.00,VWS V14.01,2013-07-10 00:51:00,
2013-07-09 21:06:00,77.2,44.2,29.38,WNW,286,0.0,0.0,31,0.00,,,0.00,VWS V14.01,2013-07-10 01:06:00,
2013-07-09 21:21:00,76.8,44.8,29.38,WNW,286,0.0,0.0,32,0.00,,,0.00,VWS V14.01,2013-07-10 01:21:00,
2013-07-09 21:36:00,76.3,45.9,29.38,WNW,286,0.0,0.0,34,0.00,,,0.00,VWS V14.01,2013-07-10 01:36:00,
2013-07-09 21:51:00,76.1,46.5,29.41,WNW,286,0.0,0.0,35,0.00,,,0.00,VWS V14.01,2013-07-10 01:51:00,
2013-07-09 22:06:00,76.1,48.0,29.41,WNW,286,0.0,0.0,37,0.00,,,0.00,VWS V14.01,2013-07-10 02:06:00,
2013-07-09 22:21:00,75.7,49.7,29.41,WNW,286,0.0,0.0,40,0.00,,,0.00,VWS V14.01,2013-07-10 02:21:00,
2013-07-09 22:36:00,75.6,50.2,29.41,WNW,286,0.0,0.0,41,0.00,,,0.00,VWS V14.01,2013-07-10 02:36:00,
2013-07-09 22:51:00,75.6,50.2,29.41,WNW,286,0.0,0.0,41,0.00,,,0.00,VWS V14.01,2013-07-10 02:51:00,
2013-07-09 23:06:00,75.4,50.7,29.41,WNW,286,0.0,0.0,42,0.00,,,0.00,VWS V14.01,2013-07-10 03:06:00,
2013-07-09 23:21:00,75.4,51.3,29.41,WNW,286,0.0,0.0,43,0.00,,,0.00,VWS V14.01,2013-07-10 03:21:00,
2013-07-09 23:36:00,75.0,52.3,29.41,WNW,286,0.0,0.0,45,0.00,,,0.00,VWS V14.01,2013-07-10 03:36:00,
2013-07-09 23:51:00,74.8,52.1,29.41,WNW,286,0.0,0.0,45,0.00,,,0.00,VWS V14.01,2013-07-10 03:51:00,